Regional Weather Roundup
Issued by NWS

Home | Current Version | Previous Version | Graphics & Text | Print | Product List | Glossary On
Versions: 1 2 3 4 5 6 7 8 9 10 11 12 13 14 15 16 17 18 19 20 21 22 23 24 25 26 27 28 29 30 31 32 33 34 35 36 37 38 39 40 41 42 43 44 45 46 47 48 49 50
621
ASUS45 KCYS 250910
RWRWY

WYOMING REGIONAL WEATHER ROUNDUP
NATIONAL WEATHER SERVICE CHEYENNE WY
300 AM MDT TUE JUL 25 2017

NOTE:  "FAIR" INDICATES FEW OR NO CLOUDS BELOW 12,000 FEET
WITH NO SIGNIFICANT WEATHER AND/OR OBSTRUCTIONS TO VISIBILITY.

WYZ001-251000-
YELLOWSTONE NATIONAL PARK

CITY           SKY/WX    TMP DP  RH WIND       PRES   REMARKS
LK YELLOWSTONE   N/A     43  42  97 CALM      30.30S
W YELLOWSTONE  NOT AVBL

$$
WYZ002>013-054>058-071-098>099-251000-
NORTHERN WYOMING

CITY           SKY/WX    TMP DP  RH WIND       PRES   REMARKS
JACKSON        FAIR      55  45  67 NE6       30.18F
CODY           FAIR      73  41  31 W5        30.04S
GREYBULL       FAIR      69  32  25 W3        29.92S
WORLAND        FAIR      65  40  39 SW9       29.96R
SHERIDAN       FAIR      63  50  62 S8        29.95F
BUFFALO        FAIR      68  45  43 W8        30.05S
GILLETTE       FAIR      66  50  56 NW6       29.96F
HULETT         FAIR      68  52  56 N5        29.99R
NEWCASTLE      FAIR      72  41  33 NE6       29.94R

$$
WYZ014>020-022>026-101>103-251000-
CENTRAL WYOMING

CITY           SKY/WX    TMP DP  RH WIND       PRES   REMARKS
BIG PINEY      FAIR      58  42  55 SW6       30.19F
PINEDALE       FAIR      54  43  66 W3        30.20F
DUBOIS         FAIR      59  34  38 W10       30.20S
LANDER         FAIR      66  39  37 SW5       30.07S
RIVERTON       FAIR      68  37  32 W8        30.07S
CASPER         FAIR      63  42  46 SW6       30.04S
DOUGLAS        FAIR      61  42  49 NW6       29.99R

$$
WYZ021-027>030-104>119-251000-
SOUTHERN WYOMING

CITY           SKY/WX    TMP DP  RH WIND       PRES   REMARKS
EVANSTON       MOCLDY    59  55  87 SW17      30.23R
KEMMERER         N/A     61  34  36 CALM      30.23R
FORT BRIDGER   FAIR      65  51  60 W20G28    30.23R
ROCK SPRINGS   CLOUDY    69  41  36 S5        30.16F
RAWLINS        NOT AVBL
SARATOGA       PTSUNNY   64  41  42 SE7       30.21R
LARAMIE        FAIR      57  44  62 W5        30.20S
CHEYENNE       FAIR      62  44  51 W5        30.12S
TORRINGTON     FAIR      72  50  45 VRB3      29.95S
PINE BLUFFS    FAIR      68  50  52 S9        30.05S

$$




USA.gov is the U.S. government's official web portal to all federal, state and local government web resources and services.